Location: Arroyo Grande
(40.2671°N, 4.2512°W)
Time: 19:17:37
(UTC+00:00)

Cosmos 2228 - Pass Details

Date: 03 February 2023
Orbit: 585 x 612 km, 82.5° (Epoch: 22 March)

Event Time Altitude Azimuth Distance (km) Brightness Sun altitude
Rises 18:30:45 0° 349° (N) 2,820 6.4 -10.5°
Reaches altitude 10° 18:32:58 10° 346° (NNW) 1,915 5.6 -10.9°
Maximum altitude 18:37:09 66° 265° (W) 643 3.4 -11.7°
Drops below altitude 10° 18:41:18 10° 183° (S) 1,903 5.7 -12.5°
Sets 18:43:30 0° 181° (S) 2,801 6.6 -12.9°
